Location: ????????
(37.9452°N, 23.1472°E)
Time: 10:07:53
(UTC+00:00)

Cosmos 1892 - Pass Details

Date: 18 April 2024
Orbit: 457 x 473 km, 82.5° (Epoch: 19 May)

Event Time Altitude Azimuth Distance (km) Brightness Sun altitude
Rises 17:30:26 0° 349° (N) 2,515 6.6 -5.4°
Reaches altitude 10° 17:32:32 10° 347° (NNW) 1,629 5.7 -5.8°
Maximum altitude 17:36:04 65° 265° (W) 514 3.0 -6.4°
Drops below altitude 10° 17:39:32 10° 183° (S) 1,603 5.0 -7.0°
Sets 17:41:36 0° 180° (S) 2,470 5.9 -7.4°
